Tracking 18840 objects as of 19-November-2017
HD Live streaming from Space Station
objects crossing your sky now

PALAPA B4

Track PALAPA B4 now!
PALAPA B4 is classified as:


NORAD ID: 21964
Int'l Code: 1992-027A
Perigee: 35,857.7 km
Apogee: 35,910.4 km
Inclination: 10.1 °
Period: 1,440.7 minutes
Semi major axis: 42255 km
RCS: 12.5892 m2 (large)
Launch date: May 14, 1992
Source: Indonesia (INDO)
Launch site: AIR FORCE EASTERN TEST RANGE (AFETR)

Palapa B-4 was an Indonesian communications spacecraft launched by a Delta rocket.
aabbcc
Your satellite tracking list
Your tracking list is empty




NASA's NSSDC Master Catalog

Two Line Element Set (TLE):
1 21964U 92027A   17322.48504444 -.00000032 +00000-0 +00000-0 0  9996
2 21964 010.0543 039.0992 0006234 250.7315 121.3956 00.99950519015883
Source of the keplerian elements: AFSPC